Regional Weather Roundup
Issued by NWS

Home | Current Version | Previous Version | Graphics & Text | Print | Product List | Glossary On
Versions: 1 2 3 4 5 6 7 8 9 10 11 12 13 14 15 16 17 18 19 20 21 22 23 24 25 26 27 28 29 30 31 32 33 34 35 36 37 38 39 40 41 42 43 44 45 46 47 48 49 50
000
ASUS44 KMEG 260610
RWRTN
TENNESSEE HOURLY STATE WEATHER ROUNDUP
NATIONAL WEATHER SERVICE MEMPHIS TN
1200 AM CST SUN FEB 26 2017

TNZ002-004-019-021-049-052-054-088>092-260700-
WEST TENNESSEE

CITY           SKY/WX    TMP DP  RH WIND       PRES   REMARKS
MEMPHIS INTL   PTCLDY    36  23  59 S3        30.15F
NWS MEMPHIS      N/A     31 N/A N/A MISG        N/A
JACKSON        CLEAR     27  24  89 CALM      30.16F
UNION CITY     CLEAR     28  21  74 CALM      30.16R
PARIS          CLEAR     25  19  80 CALM      30.16R
HUNTINGDON     CLEAR     28  25  86 CALM      30.15S
$$

TNZ008-025-027-028-033-062-065-066-260700-
NORTH MIDDLE TENNESSEE

CITY           SKY/WX    TMP DP  RH WIND       PRES   REMARKS
NASHVILLE      CLEAR     35  19  52 W3        30.16S
PORTLAND       CLEAR     28  21  74 CALM      30.15R
CLARKSVILLE    CLEAR     30  19  63 CALM      30.16R
SMYRNA         CLEAR     30  23  75 CALM      30.17S
COOKEVILLE     PTCLDY    27  25  93 CALM      30.12S
GALLATIN       CLEAR     32  19  59 CALM      30.19R
CROSSVILLE     CLEAR     29  18  63 NW3       30.09S
$$

TNZ061-075-076-078-094-096-097-260700-
SOUTH MIDDLE TENNESSEE

CITY           SKY/WX    TMP DP  RH WIND       PRES   REMARKS
FAYETTEVILLE   CLEAR     36  21  55 NW6       30.15R WCI  31
TULLAHOMA      CLEAR     28  19  69 CALM      30.14R
WINCHESTER     CLEAR     34  21  60 NW3       30.14S
MCMINNVILLE    CLEAR     28  23  80 CALM      30.13R
COLUMBIA       CLEAR     30  25  80 CALM      30.14S
SHELBYVILLE    CLEAR     30  27  86 CALM      30.17R
$$

TNZ017-018-042-046-047-260700-
NORTHEAST TENNESSEE

CITY           SKY/WX    TMP DP  RH WIND       PRES   REMARKS
TRI CITIES     CLEAR     33  18  53 W7        30.08R WCI  27
ELIZABETHTON   CLEAR     34  18  51 W8G17     30.06S WCI  27
$$

TNZ012-013-036-069-073-074-260700-
CENTRAL EAST TENNESSEE

CITY           SKY/WX    TMP DP  RH WIND       PRES   REMARKS
KNOXVILLE      CLEAR     36  21  54 N5        30.10S WCI  32
OAK RIDGE      CLEAR     35  19  52 VRB3      30.13R
GATLINBURG     CLEAR     34  19  55 NW3       30.10S
MORRISTOWN     PTCLDY    34  21  60 NW5       30.08F WCI  30
JACKSBORO      CLEAR     28  23  80 CALM      30.14S
$$

TNZ083-085-099-260700-
SOUTHEAST TENNESSEE

CITY           SKY/WX    TMP DP  RH WIND       PRES   REMARKS
CHATTANOOGA    CLEAR     39  21  48 N9        30.13R WCI  33
$$

SKY/WX REPORTED AS FAIR MEANS FEW OR NO CLOUDS BELOW
12 THOUSAND FEET.





USA.gov is the U.S. government's official web portal to all federal, state and local government web resources and services.